FW6569 Weather Reports


Display with metric or nautical units.
time (UTC)temp
F
wind
direction
speed
MPH
gust
MPH
rain 1hr
in
rain 24hr
in
rain mn
in
humidity
%
barometer
mb
20260505152550 62 203 8.0 11.0 0.00 0.29 0.29 83 1010.0
20260505151520 62 191 8.0 11.0 0.00 0.29 0.29 82 1009.9
20260505150520 62 190 8.0 11.0 0.00 0.29 0.29 82 1009.8
20260505140520 62 199 6.0 9.0 0.00 0.29 0.29 85 1009.5
20260505124520 57 204 5.0 7.0 0.00 0.28 0.28 93 1009.2
20260505123520 57 208 2.0 6.0 0.00 0.28 0.28 94 1009.1
20260505122520 57 176 1.0 4.0 0.00 0.28 0.28 94 1008.6
20260505121520 56 159 5.0 7.0 0.00 0.28 0.28 95 1008.5
20260505120521 56 151 4.0 6.0 0.00 0.28 0.28 96 1008.9
20260505115520 56 194 2.0 4.0 0.00 0.28 0.28 96 1009.0
20260505114520 56 137 5.0 7.0 0.00 0.28 0.28 96 1008.8
20260505113520 56 0.0 0.0 0.00 0.28 0.28 96 1009.7
20260505112521 56 207 3.0 5.0 0.01 0.28 0.28 96 1009.8
20260505111601 56 221 2.0 5.0 0.02 0.28 0.28 96 1009.6
20260505110521 56 210 3.0 6.0 0.02 0.28 0.28 96 1009.3
20260505100520 56 153 4.0 5.0 0.14 0.26 0.26 96 1009.3
20260505095521 56 134 3.0 4.0 0.17 0.25 0.25 96 1009.7
20260505094520 56 252 0.0 2.0 0.17 0.24 0.24 95 1010.0
20260505093521 57 150 2.0 3.0 0.17 0.22 0.22 95 1010.0
20260505092541 57 334 1.0 3.0 0.17 0.19 0.19 94 1010.4
20260505091520 57 358 2.0 4.0 0.15 0.15 0.15 94 1010.7
20260505090521 58 329 4.0 7.0 0.12 0.12 0.12 93 1010.6
20260505085521 58 312 3.0 6.0 0.08 0.08 0.08 91 1010.4
20260505084521 58 134 1.0 4.0 0.07 0.07 0.07 90 1010.2
20260505083521 59 358 4.0 9.0 0.05 0.05 0.05 86 1010.0
20260505082520 62 348 5.0 11.0 0.02 0.02 0.02 79 1009.8
20260505081521 62 357 5.0 10.0 0.00 0.00 0.00 73 1008.9
20260505080521 62 320 1.0 2.0 0.00 0.00 0.00 70 1008.0
20260505075521 63 265 1.0 3.0 0.00 0.00 0.00 68 1007.5
20260505074521 63 80 1.0 3.0 0.00 0.00 0.00 67 1007.1
20260505073521 63 78 1.0 3.0 0.00 0.00 0.00 66 1007.4
20260505072521 64 344 0.0 2.0 0.00 0.00 0.00 64 1007.8
20260505071521 65 348 1.0 2.0 0.00 0.00 0.00 62 1007.5
20260505070521 66 337 1.0 3.0 0.00 0.00 0.00 60 1007.4
20260505065521 66 231 6.0 8.0 0.00 0.00 0.00 58 1007.1
20260505064521 66 202 8.0 12.0 0.00 0.00 0.00 57 1007.1
20260505063521 66 193 8.0 13.0 0.00 0.00 0.00 58 1007.0
20260505062541 66 203 7.0 11.0 0.00 0.00 0.00 58 1006.9
20260505061521 66 210 8.0 11.0 0.00 0.00 0.00 58 1007.1
20260505060521 66 197 9.0 14.0 0.00 0.00 0.00 58 1006.9
20260505055521 66 198 8.0 10.0 0.00 0.00 0.00 57 1006.9
20260505054521 67 211 9.0 15.0 0.00 0.00 0.00 57 1007.0
20260505053521 67 207 10.0 15.0 0.00 0.00 0.00 56 1006.8
20260505052521 67 204 9.0 13.0 0.00 0.00 0.00 55 1006.7
20260505051521 67 208 12.0 19.0 0.00 0.00 0.00 55 1006.5
20260505050521 68 200 11.0 16.0 0.00 0.00 0.00 55 1006.4
20260505041521 68 194 9.0 17.0 0.00 0.00 0.00 54 1006.4
20260505040521 68 197 10.0 17.0 0.00 0.00 0.00 54 1006.7
20260505035542 69 200 8.0 11.0 0.00 0.00 0.00 54 1006.8
20260505034521 69 208 10.0 15.0 0.00 0.00 0.00 54 1007.1
20260505033521 69 209 9.0 13.0 0.00 0.00 0.00 54 1007.2
20260505032521 69 204 10.0 13.0 0.00 0.00 0.00 55 1007.2
20260505031521 69 195 9.0 13.0 0.00 0.00 0.00 54 1007.3
20260505030522 69 206 8.0 10.0 0.00 0.00 0.00 54 1007.3
20260505025521 69 207 9.0 12.0 0.00 0.00 0.00 54 1007.0
20260505024521 69 206 9.0 10.0 0.00 0.00 0.00 54 1006.9
20260505023522 69 199 9.0 13.0 0.00 0.00 0.00 54 1006.8
20260505022521 69 204 9.0 13.0 0.00 0.00 0.00 55 1006.8
20260505021521 69 199 9.0 14.0 0.00 0.00 0.00 55 1006.5
20260505020522 69 203 8.0 11.0 0.00 0.00 0.00 56 1006.3
20260505015521 69 212 8.0 12.0 0.00 0.00 0.00 56 1006.2
20260505014522 69 188 7.0 10.0 0.00 0.00 0.00 56 1005.9
20260505013601 70 203 8.0 12.0 0.00 0.00 0.00 55 1005.7
20260505012522 70 196 8.0 12.0 0.00 0.00 0.00 54 1005.6
20260505011522 70 200 9.0 12.0 0.00 0.00 0.00 54 1005.5
20260505010522 70 211 7.0 9.0 0.00 0.00 0.00 53 1005.5
20260505005522 71 201 6.0 11.0 0.00 0.00 0.00 52 1005.4
20260505004522 71 199 7.0 9.0 0.00 0.00 0.00 51 1005.5
20260505003522 72 198 7.0 9.0 0.00 0.00 0.00 49 1005.6
20260505002522 72 195 8.0 12.0 0.00 0.00 0.00 49 1005.5
20260505001522 72 201 8.0 14.0 0.00 0.00 0.00 48 1005.6
20260505000522 73 208 11.0 17.0 0.00 0.00 0.00 48 1005.7
20260504235522 73 207 10.0 13.0 0.00 0.00 0.00 48 1005.7
20260504234522 74 211 8.0 11.0 0.00 0.00 0.00 47 1005.8
20260504233522 74 212 11.0 16.0 0.00 0.00 0.00 48 1006.1
20260504232522 74 204 10.0 16.0 0.00 0.00 0.00 49 1006.3
20260504231542 74 205 11.0 15.0 0.00 0.00 0.00 48 1006.4
20260504230542 74 221 8.0 12.0 0.00 0.00 0.00 49 1006.5
20260504225522 74 207 8.0 11.0 0.00 0.00 0.00 50 1006.6
20260504224522 75 208 9.0 12.0 0.00 0.00 0.00 49 1006.7
20260504223522 75 201 9.0 13.0 0.00 0.00 0.00 48 1006.8
20260504222522 75 206 12.0 19.0 0.00 0.00 0.00 47 1006.9
20260504221522 75 212 12.0 17.0 0.00 0.00 0.00 47 1007.0
20260504220522 75 200 15.0 19.0 0.00 0.00 0.00 45 1007.1
20260504215522 76 217 12.0 18.0 0.00 0.00 0.00 45 1007.0
20260504214522 76 212 14.0 19.0 0.00 0.00 0.00 44 1007.0
20260504213522 76 210 15.0 21.0 0.00 0.00 0.00 43 1007.0
20260504212522 77 216 12.0 21.0 0.00 0.00 0.00 41 1006.9
20260504211522 77 209 12.0 18.0 0.00 0.00 0.00 45 1006.9
20260504210522 76 204 8.0 14.0 0.00 0.00 0.00 49 1007.1
20260504205522 75 221 5.0 7.0 0.00 0.00 0.00 50 1007.5
20260504204522 77 226 5.0 9.0 0.00 0.00 0.00 47 1007.7
20260504203522 78 249 4.0 7.0 0.00 0.00 0.00 45 1007.9
20260504202522 78 242 7.0 13.0 0.00 0.00 0.00 44 1008.1
20260504201522 77 233 6.0 9.0 0.00 0.00 0.00 46 1008.1
20260504200543 76 203 6.0 14.0 0.00 0.00 0.00 48 1008.2
20260504195522 77 210 8.0 14.0 0.00 0.00 0.00 50 1008.4
20260504194522 76 220 6.0 12.0 0.00 0.00 0.00 51 1008.6
20260504193522 75 201 8.0 12.0 0.00 0.00 0.00 53 1008.7
20260504192523 72 242 6.0 9.0 0.00 0.00 0.00 53 1008.8
20260504191522 72 222 4.0 8.0 0.00 0.00 0.00 59 1008.8
20260504190523 72 213 8.0 13.0 0.00 0.00 0.00 58 1009.0
20260504185522 71 218 7.0 9.0 0.00 0.00 0.00 62 1009.2
20260504184523 70 217 5.0 8.0 0.00 0.00 0.00 64 1009.4
20260504183543 68 216 4.0 6.0 0.00 0.00 0.00 66 1009.4
20260504182623 67 197 3.0 4.0 0.00 0.00 0.00 67 1009.4
20260504181523 67 199 7.0 9.0 0.00 0.00 0.00 67 1009.5
20260504180543 66 219 7.0 9.0 0.00 0.00 0.00 67 1009.7
20260504175523 67 223 5.0 10.0 0.00 0.00 0.00 67 1009.5
20260504174522 68 212 9.0 11.0 0.00 0.00 0.00 63 1009.2
20260504173523 68 224 10.0 12.0 0.00 0.00 0.00 62 1009.4
20260504172523 68 204 12.0 15.0 0.00 0.00 0.00 62 1009.3
20260504171523 68 210 10.0 15.0 0.00 0.00 0.00 64 1009.3
20260504170523 68 202 12.0 15.0 0.00 0.00 0.00 63 1009.2